COSMOS 1700

导读

**COSMOS 1700(宇宙1700号)**隶属于苏联/俄罗斯宇宙号卫星系列,是卢奇卫星家族的成员,由应用力学设计局研发。该卫星于1985年10月25日在拜科努尔发射场通过质子K Blok-DM2运载火箭发射升空,定位于地球静止轨道,承担通信及数据中继任务,卫星质量达24400kg,设计寿命5年。

Basic Information
目录编号:
16199
目录名称:
COSMOS 1700
国际标识:
1985-102A
轨道中心:
EARTH
卫星名称:
COSMOS 1700
卫星全名:
--
卫星状态:
在轨 (已飞行14934 天)
发射日期:
1985-10-25 UTC
国别 :
俄罗斯(独联体) (CIS)
星等 :
--
This satellite is enrolled in the Space Conjunction Data Service (SCDS) and the current flight risk assessment level is: No High Risk
Orbit Information
数据来源 国际轨道数据 AOE轨道数据
星历时间 2026-09-14T00:00:23+0800
13小时前
查看轨道信息
2026-09-13T01:00:00+0800
1天前
查看轨道信息
半长轴 42159.515km 42159.459km
偏心率 0.000628 0.000613
轨道倾角 9.568° 9.570°
近地点辐角 244.729° 241.434°
升交点赤经 318.335° 318.340°
平近点角 122.472° 139.654°
近地点 35754.901km 35755.478km
远地点 35807.855km 35807.166km
周期 1435.830分钟 1435.827分钟
每日圈数 1.002904 1.002906
Detailed Information
使用方式:
暂无
2D Orbit Map
3D Orbit Map
Orbit Altitude Analysis Chart
Orbit Inclination Analysis Chart
Orbit Comprehensive Analysis Chart
View Comprehensive Chart
Miss Distance Evolution Trend with All Objects Subscribe to Flight Safety Assessment
Collision Probability Evolution Trend with All Objects Subscribe to Flight Safety Assessment